CW8212 Weather Reports


Display with metric or nautical units.
time (UTC)temp
F
wind
direction
speed
MPH
gust
MPH
rain 1hr
in
rain 24hr
in
rain mn
in
humidity
%
barometer
mb
20260504081514 46 130 0.0 0.0 0.00 0.00 0.00 63 1015.5
20260504044557 48 307 0.0 0.0 0.00 0.00 0.00 56 1015.2
20260504043101 48 307 0.0 0.0 0.00 0.00 0.00 55 1015.1
20260504041555 48 307 0.0 0.0 0.00 0.00 0.00 55 1015.0
20260504040052 48 307 0.0 0.0 0.00 0.00 0.00 54 1014.8
20260504034550 49 307 0.0 0.0 0.00 0.00 0.00 53 1014.8
20260504033054 49 307 0.0 0.0 0.00 0.00 0.00 53 1014.7
20260504031559 50 307 0.0 0.0 0.00 0.00 0.00 52 1014.7
20260504030051 50 307 0.0 0.0 0.00 0.00 0.00 51 1014.7
20260504024557 50 311 0.0 1.0 0.00 0.00 0.00 51 1014.7
20260504023048 50 313 0.0 0.0 0.00 0.00 0.00 50 1014.8
20260504021552 51 313 0.0 0.0 0.00 0.00 0.00 49 1014.7
20260504020050 52 313 0.0 0.0 0.00 0.00 0.00 48 1014.6
20260504014547 52 313 0.0 0.0 0.00 0.00 0.00 47 1014.6
20260504013056 53 313 0.0 0.0 0.00 0.00 0.00 46 1014.4
20260504011546 53 313 0.0 0.0 0.00 0.00 0.00 45 1014.3
20260504010046 54 313 0.0 0.0 0.00 0.00 0.00 44 1014.1
20260504004559 55 290 0.0 1.0 0.00 0.00 0.00 43 1013.9
20260504003045 56 290 0.0 1.0 0.00 0.00 0.00 42 1013.7
20260504001547 56 312 0.0 1.0 0.00 0.00 0.00 41 1013.6
20260504000044 57 311 0.0 2.0 0.00 0.00 0.00 40 1013.5
20260503234543 58 323 0.0 4.0 0.00 0.00 0.00 39 1013.3
20260503233044 58 312 1.0 4.0 0.00 0.00 0.00 38 1013.2
20260503231550 58 304 1.0 7.0 0.00 0.00 0.00 37 1013.1
20260503230050 58 291 1.0 6.0 0.00 0.00 0.00 36 1013.0
20260503224542 59 360 4.0 11.0 0.00 0.00 0.00 36 1013.0
20260503223041 59 42 0.0 10.0 0.00 0.00 0.00 37 1013.0
20260503221540 59 330 3.0 12.0 0.00 0.00 0.00 35 1013.0
20260503220041 59 290 3.0 13.0 0.00 0.00 0.00 36 1013.0
20260503214538 59 305 1.0 7.0 0.00 0.00 0.00 36 1012.8
20260503213037 58 302 5.0 10.0 0.00 0.00 0.00 37 1012.9
20260503211540 58 281 3.0 10.0 0.00 0.00 0.00 37 1012.8
20260503210034 58 330 2.0 10.0 0.00 0.00 0.00 38 1012.8
20260503204533 57 280 2.0 10.0 0.00 0.00 0.00 38 1012.9
20260503203031 57 284 3.0 13.0 0.00 0.00 0.00 38 1013.1
20260503201530 57 247 2.0 13.0 0.00 0.00 0.00 38 1013.1
20260503200031 56 272 5.0 13.0 0.00 0.00 0.00 38 1013.2
20260503194530 56 334 4.0 13.0 0.00 0.00 0.00 39 1013.2
20260503193036 56 284 5.0 12.0 0.00 0.00 0.00 39 1013.3
20260503191526 56 351 0.0 10.0 0.00 0.00 0.00 40 1013.5
20260503190031 55 309 5.0 11.0 0.00 0.00 0.00 40 1013.6
20260503184522 55 360 3.0 16.0 0.00 0.00 0.00 40 1013.6
20260503183018 55 302 1.0 12.0 0.00 0.00 0.00 40 1013.9
20260503181515 55 288 3.0 12.0 0.00 0.00 0.00 39 1014.1
20260503180012 54 319 2.0 9.0 0.00 0.00 0.00 41 1014.1
20260503174509 54 302 1.0 12.0 0.00 0.00 0.00 41 1014.2
20260503173017 54 265 4.0 13.0 0.00 0.00 0.00 41 1014.3
20260503171508 54 300 4.0 11.0 0.00 0.00 0.00 42 1014.4